Location: Aalen
(48.8330°N, 10.1000°E)
Time: 17:56:24
(UTC+02:00)

Transit 4A - Pass Details

Date: 06 August 2021
Orbit: 871 x 974 km, 66.8° (Epoch: 16 September)

Event Time Altitude Azimuth Distance (km) Brightness Sun altitude
Rises 08:29:06 0° 324° (NW) 3,476 10.6 22.8°
Reaches altitude 10° 08:31:34 10° 325° (NW) 2,541 9.9 23.2°
Maximum altitude 08:37:28 88° 56° (NE) 897 8.3 24.2°
Drops below altitude 10° 08:43:27 10° 146° (SE) 2,581 10.9 25.2°
Sets 08:45:59 0° 146° (SSE) 3,535 11.4 25.6°
